Regional Weather Roundup
Issued by NWS Bismarck, ND

Home | Current Version | Previous Version | Text Only | Print | Product List | Glossary On
Versions: 1 2 3 4 5 6 7 8 9 10 11 12 13 14 15 16 17 18 19 20 21 22 23 24 25 26 27 28 29 30 31 32 33 34 35 36 37 38 39 40 41 42 43 44 45 46 47 48 49 50
000
ASUS43 KBIS 122110
RWRBIS

NWR BROADCAST TEXT
NATIONAL WEATHER SERVICE BISMARCK ND
300 PM CST TUE DEC 12 2017

NOTE: "FAIR" INDICATES FEW OR NO CLOUDS BELOW 12,000 FEET WITH NO
SIGNIFICANT WEATHER AND/OR OBSTRUCTIONS TO VISIBILITY.


CITY           SKY/WX    TMP DP  RH WIND       PRES   REMARKS
WILLISTON      FAIR      47  27  45 S7        29.78F
MINOT          FAIR      50  23  34 SW12      29.71F
MINOT AFB      SUNNY     49  25  38 W10       29.70F
BISMARCK       FAIR      53  28  38 W12       29.81F
DICKINSON      FAIR      55  24  30 W21G29    29.81F
GARRISON         N/A     50  25  37 W13       29.77F
HETTINGER ARPT SUNNY     58  20  22 W15       29.89F
JAMESTOWN      FAIR      42  29  59 W12       29.75F
CARRINGTON     FAIR      45  30  57 W9G16     29.77F
HAZEN          FAIR      52  25  35 W13       29.80F
LINTON           N/A     48  28  46 SW8       29.84F
MANDAN         FAIR      52  28  40 W13       29.80F
OAKES            N/A     43  30  61 SW9       29.81F
RUGBY          FAIR      45  27  49 W14       29.72F
STANLEY        FAIR      45  27  49 W18       29.77F HAZE
TIOGA          FAIR      43  27  52 SW16G23   29.76F
WATFORD CITY   FAIR      52  25  35 SW15      29.79F
$$

CITY           SKY/WX    TMP DP  RH WIND       PRES   REMARKS
GRAND FORKS    PTSUNNY   35  31  85 S12       29.73F
GRAND FORKS AF MOSUNNY   39  29  68 SW8       29.72F
DEVILS LAKE    SUNNY     40  29  64 SW10      29.71F
FARGO          CLOUDY    37  30  75 S9        29.79F
CANDO          FAIR      43  27  52 W20       29.71F
CAVALIER       FAIR      34  28  80 S8        29.67F
GRAFTON        FAIR      34  30  86 S12       29.72F
GWINNER          N/A     41  30  65 SW17      29.80F
LANGDON        FAIR      39  34  81 SW16      29.66F
ROLLA          FAIR      39  27  60 W14G22    29.66F
WALHALLA       FAIR      39  30  70 SW6       29.66F
$$

CITY           SKY/WX    TMP DP  RH WIND       PRES   REMARKS
ABERDEEN       SUNNY     47  27  45 SW16G23   29.85F
MOBRIDGE       SUNNY     53  28  38 W9        29.84F
BUFFALO          N/A     59  21  23 W17       29.88F
RAPID CITY     SUNNY     60  15  17 S6        29.99F
GLASGOW        CLOUDY    52  16  24 W13       29.85F
SIDNEY         CLOUDY    57  19  22 W15       29.81F
WOLF POINT     CLOUDY    49  25  39 W13G21    29.83F
GLENDIVE       CLOUDY    59  17  19 W15G22    29.88F
MILES CITY     SUNNY     59  17  19 W17       29.94F
BAKER          SUNNY     53  23  31 W18       29.93F
$$

CITY           SKY/WX    TMP DP  RH WIND       PRES   REMARKS
BILLINGS       PTSUNNY   54  20  26 SW18G30   30.07F
GREAT FALLS    CLOUDY    50   2  14 SW22      30.15R
REGINA         PTSUNNY   39  30  70 W9        29.68F
ESTEVAN        CLOUDY    43  28  56 SW15      29.69F
$$




USA.gov is the U.S. government's official web portal to all federal, state and local government web resources and services.